Weather in Kurmangazy

Kazakhstan     46°36′28″N   49°16′16″E
temp.,
°C
wind,
m/s
gust,
m/s
humid.,
%
clouds,
%
prec.,
mm/h
press.,
hPa
HPBL,
m
21 april, wed
wed2123:00+14ese142159100 0.1 1014607
02:00+14ese132262100 0.3 1014620
05:00+13ese101961100 0.3 1015623
08:00+12ese101666100 0.1 1017637
11:00+13se101461100 0.1 1018646
14:00+17se91248100 0.0 1018754
17:00+20se6742100 0.0 1017907
20:00+17e5651100 0.0 1017352
22 april, thu
thu2223:00+15se2573100 0.8 1017259
02:00+14s228177 0.8 101747
05:00+13wnw228267 0.8 101827
08:00+13n2364100 0.1 1019126
11:00+16se236297 0.1 1020449
14:00+16s216399 0.2 1021492
17:00+17nnw335573 0.2 1020862
20:00+17nne67362 0.0 1019521
23 april, fri
fri2323:00+13n69405 0.0 1020197
02:00+12n5104412 0.0 1019254
05:00+11nnw7957100 0.1 1018320
08:00+11n6959100 0.1 1017313
11:00+11nw7957100 0.1 1018469
14:00+11nw81166100 0.0 1018580
17:00+12nw8126692 0.0 1018825
20:00+12nw71161100 0.0 1018903
24 april, sat
sat2423:00+10wnw410751 0.0 1018298
02:00+9wnw45780 0.0 1017104
05:00+8wnw33810 0.0 101843
08:00+10w23715 0.0 101896
11:00+15wsw3551100 0.0 1019654
14:00+18sw454190 0.0 10181560
17:00+19s45438 0.0 10181190
20:00+17ssw685314 0.0 1018233
25 april, sun
sun2523:00+14ssw6106814 0.0 1019255
02:00+13sw511705 0.0 1020254
05:00+13wsw4868100 0.0 1020190
08:00+15wnw246191 0.0 1020140
11:00+17se3352100 0.0 1020591
14:00+19sse554695 0.0 1019887
17:00+20se5635100 0.0 1017874
20:00+19ene5636100 0.0 1015544